User: anonymous   Login
Location: Stull Observatory
(42.2506°N, 77.7903°W)
Time: 09:30:00
(UTC-05:00)
Language:

Abrixas rocket - Orbit

View from above orbital plane
View from above orbital plane
View from above satellite
View from above satellite

Ground track
Ground track

The orbit data is extracted from the following two-line orbital elements,

1 25723U 99022C   16339.90139982  .00005935  00000-0  10604-3 0  9990
2 25723  48.4167 121.1864 0011048 186.8405 173.2389 15.51354714976304
Epoch (UTC): 04 December 2016 21:38:00
Eccentricity: 0.0011048
inclination: 48.4167°
perigee height: 405 km
apogee height: 420 km
right ascension of ascending node: 121.1864°
argument of perigee: 186.8405°
revolutions per day: 15.51354714
mean anomaly at epoch: 173.2389°
orbit number at epoch: 97630

The dashed part of the orbit path shows where the satellite is in the earth's shadow,  

DLR